Previsão horária em Abez

Hoje, 18 Maio, Terça-feira

Tempo Temperatura Precipitação Vento Pressão Humidade
00:00 0°C° 0 mm 4 m/s 758 mmHg 69%
01:00 +1°C° 0 mm 3 m/s 758 mmHg 71%
02:00 0°C° 0 mm 3 m/s 759 mmHg 70%
03:00 0°C° 0 mm 3 m/s 759 mmHg 70%
04:00 0°C° 0 mm 3 m/s 759 mmHg 69%
05:00 0°C° 0 mm 3 m/s 760 mmHg 64%
06:00 +2°C° 0 mm 2 m/s 760 mmHg 59%
07:00 +2°C° 0 mm 2 m/s 760 mmHg 54%
08:00 +7°C° 0 mm 2 m/s 761 mmHg 30%
09:00 +6°C° 0 mm 2 m/s 761 mmHg 32%
10:00 +6°C° 0 mm 2 m/s 761 mmHg 35%
11:00 +6°C° 0 mm 2 m/s 761 mmHg 32%
12:00 +7°C° 0 mm 2 m/s 762 mmHg 30%
13:00 +8°C° 0 mm 2 m/s 762 mmHg 27%
14:00 +8°C° 0 mm 2 m/s 762 mmHg 27%
15:00 +8°C° 0 mm 2 m/s 762 mmHg 27%
16:00 +8°C° 0 mm 2 m/s 762 mmHg 27%
17:00 +9°C° 0 mm 1 m/s 762 mmHg 29%
18:00 +9°C° 0 mm 1 m/s 762 mmHg 30%
19:00 +9°C° 0 mm 1 m/s 762 mmHg 31%
20:00 +8°C° 0 mm 2 m/s 762 mmHg 35%
21:00 +7°C° 0 mm 2 m/s 763 mmHg 39%
22:00 +7°C° 0 mm 3 m/s 763 mmHg 43%
23:00 +7°C° 0 mm 3 m/s 763 mmHg 45%

Amanhã, 19 Maio, Quarta-feira

Tempo Temperatura Precipitação Vento Pressão Humidade
00:00 +5°C° 0 mm 3 m/s 762 mmHg 47%
01:00 +5°C° 0 mm 3 m/s 762 mmHg 50%
02:00 +5°C° 0 mm 3 m/s 762 mmHg 52%
03:00 +5°C° 0 mm 3 m/s 762 mmHg 54%
04:00 +5°C° 0 mm 3 m/s 762 mmHg 56%
05:00 +5°C° 0 mm 4 m/s 762 mmHg 56%
06:00 +6°C° 0 mm 5 m/s 761 mmHg 55%
07:00 +7°C° 0 mm 5 m/s 761 mmHg 55%
08:00 +7°C° 0 mm 6 m/s 761 mmHg 56%
09:00 +7°C° 0 mm 6 m/s 760 mmHg 57%
10:00 +6°C° 0 mm 7 m/s 760 mmHg 58%
11:00 +8°C° 0 mm 7 m/s 759 mmHg 58%
12:00 +9°C° 0 mm 7 m/s 758 mmHg 57%
13:00 +10°C° 0 mm 7 m/s 758 mmHg 57%
14:00 +10°C° 0.6 mm 7 m/s 757 mmHg 65%
15:00 +9°C° 0.6 mm 8 m/s 756 mmHg 72%
16:00 +7°C° 0.6 mm 8 m/s 756 mmHg 80%
17:00 +10°C° 0.3 mm 8 m/s 755 mmHg 73%
18:00 +12°C° 0.3 mm 7 m/s 754 mmHg 67%
19:00 +15°C° 0.3 mm 7 m/s 753 mmHg 60%
20:00 +14°C° 1 mm 6 m/s 752 mmHg 67%
21:00 +14°C° 1 mm 5 m/s 752 mmHg 73%
22:00 +13°C° 1 mm 4 m/s 752 mmHg 80%
23:00 +13°C° 0.3 mm 4 m/s 752 mmHg 81%

Depois de amanhã, 20 Maio, Quinta-feira

Tempo Temperatura Precipitação Vento Pressão Humidade
00:00 +13°C° 0.3 mm 4 m/s 752 mmHg 82%
01:00 +12°C° 0.3 mm 3 m/s 752 mmHg 83%
02:00 +12°C° 0 mm 3 m/s 752 mmHg 85%
03:00 +12°C° 0 mm 3 m/s 752 mmHg 87%
04:00 +12°C° 0 mm 3 m/s 752 mmHg 90%
05:00 +13°C° 0 mm 3 m/s 753 mmHg 87%
06:00 +14°C° 0 mm 3 m/s 753 mmHg 84%
07:00 +16°C° 0 mm 3 m/s 753 mmHg 81%
08:00 +18°C° 0.1 mm 3 m/s 753 mmHg 75%
09:00 +19°C° 0.1 mm 3 m/s 753 mmHg 70%
10:00 +21°C° 0.1 mm 3 m/s 752 mmHg 64%
11:00 +23°C° 0.1 mm 5 m/s 752 mmHg 55%
12:00 +27°C° 0.1 mm 6 m/s 752 mmHg 46%
13:00 +29°C° 0.1 mm 8 m/s 751 mmHg 37%
14:00 +29°C° 0 mm 8 m/s 751 mmHg 35%
15:00 +29°C° 0 mm 8 m/s 751 mmHg 32%
16:00 +31°C° 0 mm 8 m/s 751 mmHg 29%
17:00 +29°C° 0 mm 7 m/s 750 mmHg 30%
18:00 +29°C° 0 mm 6 m/s 750 mmHg 31%
19:00 +28°C° 0 mm 6 m/s 750 mmHg 32%
20:00 +27°C° 0 mm 6 m/s 750 mmHg 36%
21:00 +26°C° 0 mm 7 m/s 750 mmHg 39%
22:00 +23°C° 0 mm 7 m/s 750 mmHg 43%
23:00 +22°C° 0 mm 7 m/s 750 mmHg 46%

21 Maio, Sexta-feira

Tempo Temperatura Precipitação Vento Pressão Humidade
00:00 +21°C° 0 mm 6 m/s 750 mmHg 50%
01:00 +20°C° 0 mm 5 m/s 750 mmHg 54%
02:00 +19°C° 0 mm 5 m/s 750 mmHg 55%
03:00 +19°C° 0 mm 5 m/s 750 mmHg 56%
04:00 +19°C° 0 mm 6 m/s 750 mmHg 57%
05:00 +20°C° 0.1 mm 6 m/s 750 mmHg 55%
06:00 +21°C° 0.1 mm 7 m/s 750 mmHg 52%
07:00 +23°C° 0.1 mm 8 m/s 751 mmHg 49%
08:00 +24°C° 0 mm 7 m/s 751 mmHg 47%
09:00 +26°C° 0 mm 7 m/s 751 mmHg 45%
10:00 +27°C° 0 mm 7 m/s 751 mmHg 43%
11:00 +28°C° 0 mm 7 m/s 751 mmHg 40%
12:00 +29°C° 0 mm 7 m/s 751 mmHg 37%
13:00 +30°C° 0 mm 7 m/s 751 mmHg 34%
14:00 +31°C° 0 mm 8 m/s 751 mmHg 32%
15:00 +31°C° 0 mm 8 m/s 751 mmHg 29%
16:00 +31°C° 0 mm 8 m/s 751 mmHg 27%
17:00 +30°C° 0 mm 7 m/s 751 mmHg 27%
18:00 +29°C° 0 mm 6 m/s 751 mmHg 28%
19:00 +28°C° 0 mm 4 m/s 750 mmHg 28%
20:00 +27°C° 0 mm 4 m/s 750 mmHg 32%
21:00 +25°C° 0 mm 5 m/s 750 mmHg 37%
22:00 +23°C° 0 mm 5 m/s 750 mmHg 41%
23:00 +22°C° 0 mm 5 m/s 750 mmHg 42%

22 Maio, Sábado

Tempo Temperatura Precipitação Vento Pressão Humidade
00:00 +21°C° 0 mm 5 m/s 749 mmHg 43%
01:00 +21°C° 0 mm 5 m/s 749 mmHg 44%
02:00 +20°C° 0 mm 6 m/s 749 mmHg 46%
03:00 +20°C° 0 mm 6 m/s 749 mmHg 47%
04:00 +20°C° 0 mm 6 m/s 749 mmHg 49%
05:00 +21°C° 0 mm 7 m/s 748 mmHg 47%
06:00 +22°C° 0 mm 7 m/s 748 mmHg 44%
07:00 +23°C° 0 mm 8 m/s 748 mmHg 42%
08:00 +23°C° 0 mm 8 m/s 747 mmHg 40%
09:00 +24°C° 0 mm 9 m/s 747 mmHg 39%
10:00 +26°C° 0 mm 9 m/s 747 mmHg 37%
11:00 +24°C° 0.1 mm 10 m/s 746 mmHg 40%
12:00 +24°C° 0.1 mm 11 m/s 746 mmHg 43%
13:00 +23°C° 0.1 mm 12 m/s 746 mmHg 46%
14:00 +22°C° 1.3 mm 11 m/s 746 mmHg 50%
15:00 +19°C° 1.3 mm 10 m/s 746 mmHg 54%
16:00 +18°C° 1.3 mm 8 m/s 746 mmHg 58%
17:00 +19°C° 0 mm 10 m/s 744 mmHg 57%
18:00 +18°C° 0 mm 10 m/s 744 mmHg 64%
19:00 +16°C° 0 mm 10 m/s 743 mmHg 71%
20:00 +16°C° 0.7 mm 9 m/s 743 mmHg 72%
21:00 +16°C° 0.7 mm 8 m/s 743 mmHg 73%
22:00 +16°C° 0.7 mm 7 m/s 742 mmHg 73%
23:00 +16°C° 0.1 mm 7 m/s 742 mmHg 70%

23 Maio, Domingo

Tempo Temperatura Precipitação Vento Pressão Humidade
00:00 +16°C° 0.1 mm 7 m/s 742 mmHg 67%
01:00 +16°C° 0.1 mm 7 m/s 741 mmHg 64%
02:00 +15°C° 0 mm 7 m/s 741 mmHg 66%
03:00 +15°C° 0 mm 7 m/s 741 mmHg 68%
04:00 +13°C° 0 mm 8 m/s 741 mmHg 71%
05:00 +15°C° 0 mm 9 m/s 741 mmHg 68%
06:00 +15°C° 0 mm 9 m/s 741 mmHg 66%
07:00 +14°C° 0 mm 10 m/s 741 mmHg 63%
08:00 +14°C° 0 mm 10 m/s 741 mmHg 64%
09:00 +14°C° 0 mm 10 m/s 741 mmHg 64%
10:00 +16°C° 0 mm 10 m/s 741 mmHg 65%
11:00 +14°C° 0.3 mm 10 m/s 741 mmHg 71%
12:00 +13°C° 0.3 mm 9 m/s 741 mmHg 77%
13:00 +12°C° 0.3 mm 9 m/s 742 mmHg 83%
14:00 +10°C° 0.7 mm 9 m/s 743 mmHg 83%
15:00 +7°C° 0.7 mm 9 m/s 744 mmHg 82%
16:00 +5°C° 0.7 mm 9 m/s 745 mmHg 82%
17:00 +3°C° 1 mm 9 m/s 746 mmHg 84%
18:00 +2°C° 1 mm 9 m/s 748 mmHg 86%
19:00 +1°C° 1 mm 8 m/s 749 mmHg 88%
20:00 +1°C° 0.1 mm 9 m/s 751 mmHg 82%
21:00 +1°C° 0.1 mm 9 m/s 752 mmHg 75%
22:00 +1°C° 0.1 mm 9 m/s 753 mmHg 69%
23:00 0°C° 0 mm 9 m/s 754 mmHg 68%
Mostrar mais

Necessitamos do seu Consentimento

A Meteoprog e os seus Fornecedores de Serviços podem armazenar e aceder a dados pessoais como cookies, identificadores do dispositivo ou outras tecnologias semelhantes existentes no seu dispositivo e processar estes dados para personalizar conteúdos e anúncios, assim como funcionalidades nas redes sociais e análise de tráfego.

  • Armazenar e/ou aceder a informações no seu dispositivo

    Os cookies, identificadores do dispositivo ou outras informações podem ser armazenados ou acedidos no seu dispositivo, para os fins acima indicados.

  • Anúncios e conteúdos personalizados, medição de anúncios e conteúdos, dados sobre o público-alvo e desenvolvimento de produtos

    Os anúncios e os conteúdos podem ser personalizados com base num perfil. Podem ser adicionados dados adicionais para uma maior personalização dos anúncios e dos conteúdos. A eficácia dos anúncios e dos conteúdos pode ser medida. Podem ser obtidas informações sobre o público que visualizou os anúncios e os conteúdos. Estes dados podem ser usados para desenvolver ou melhorar sistemas, softwares ou a experiência do utilizador.

Ao clicar em "Eu concordo”, permitirá o uso de cookies, identificadores do dispositivo e web beacons mencionados ou outras tecnologias semelhantes. As configurações do navegador do seu dispositivo podem ser alteradas.

Para certos fins, podem ser invocados interesses legítimos ao invés de consentimento. Pode ler mais informação sobre este assunto na nossa Política de Privacidade e Cookies.